Flag for Chile Weather past 2 weeks in Santiago, Chile

Now
61 °F

Partly cloudy.


Feels Like: 61 °F
Forecast: N/A
Wind: 5 mph from West

Location: Pudahuel

Current Time: Aug 30, 2014 at 7:11:28 PM

Latest Report: Aug 30, 2014 at 6:00 PM


Visibility: N/A

Pressure: 30.09 "Hg

Humidity: 59%

Dew point: 46 °F

Location of SantiagoLocation

Historic Weather in Santiago — Graph

°F

Santiago temperature yesterday

Maximum temperature yesterday: 72 °F (at 3:00 PM)
Minimum temperature yesterday: 43 °F (at 7:00 AM)
Average temperature yesterday: 54 °F

Past Weeks' High & Low Weather Summary

 TemperatureHumidityPressure
High84 °F (Aug 17, 3:00 PM)100% (Aug 19, 7:00 AM)30.27 "Hg (Aug 19, 7:00 AM)
Low32 °F (Aug 25, 6:00 AM)15% (Aug 26, 2:00 PM)29.83 "Hg (Aug 18, 4:00 PM)
Average52 °F70%30.03 "Hg
* Reported Aug 15 6:00 PM — Aug 30 6:00 PM, Santiago, Weather by CustomWeather, © 2014

Note: Actual official high and low records may vary slightly from our data, if they occured in-between our weather recording intervals... More about our weather records

Advertising

Santiago weather history for previous 24 hours

 ConditionsComfort  
Time TempWeatherWind HumidityBarometerVisibility
6:00 PM
Aug 30
61 °FPartly cloudy.5 mph59%30.09 "HgN/A
5:00 PM63 °FPartly sunny.3 mph52%30.09 "HgN/A
4:00 PM63 °FBroken clouds.2 mph52%30.12 "HgN/A
3:00 PM63 °FPartly sunny.2 mph52%30.12 "HgN/A
2:00 PM63 °FPartly sunny.3 mph52%30.15 "HgN/A
1:00 PM61 °FBroken clouds.3 mph55%30.18 "HgN/A
12:00 PM57 °FPartly sunny.3 mph67%30.21 "HgN/A
11:00 AM55 °FBroken clouds.2 mph72%30.21 "HgN/A
10:00 AM52 °FPartly sunny.No wind82%30.21 "Hg5 mi
9:00 AM52 °FPartly sunny.5 mph77%30.21 "HgN/A
8:00 AM50 °FBroken clouds.6 mph82%30.18 "Hg5 mi
7:00 AM48 °FRain showers. More clouds than sun.10 mph82%30.15 "Hg4 mi
6:00 AM48 °FPartly cloudy.7 mph82%30.07 "HgN/A
5:00 AM46 °FPartly cloudy.7 mph82%30.04 "HgN/A
4:00 AM48 °FPassing clouds.3 mph82%30.04 "HgN/A
3:00 AM48 °FPassing clouds.6 mph82%30.07 "HgN/A
2:00 AM50 °FOvercast.3 mph76%30.07 "HgN/A
1:00 AM48 °FOvercast.7 mph82%30.07 "HgN/A
12:00 AM48 °FPassing clouds.10 mph76%30.01 "HgN/A
11:00 PM
Aug 29
48 °FOvercast.13 mph76%29.98 "HgN/A
10:00 PM50 °FPassing clouds.14 mph76%29.95 "HgN/A
9:00 PM54 °FPassing clouds.12 mph67%29.92 "HgN/A
8:00 PM55 °FPassing clouds.10 mph67%29.92 "HgN/A
7:00 PM61 °FPassing clouds.10 mph55%29.89 "HgN/A
Weather by CustomWeather, © 2014

See weather overviewHow to use our weather pages